Overview Statistics Trail Chart Weather Telemetry Raw packets
 

This is the latest recevied weather packets stored in our database for station/object EA5CLU-13. If no packets are shown the sender has not sent any weather packets the latest 10 day(s).

<< 20 21 22 23 24 25 26 >>
Time Temp. Humidity Pressure Rain* Wind** Luminosity Snow
1787968780 13.89° C - 1022.6 hPa 0 mm - - -
1787968480 13.89° C - 1022.6 hPa 0 mm - - -
1787968179 13.89° C - 1022.5 hPa 0 mm - - -
1787967879 13.89° C - 1022.5 hPa 0 mm - - -
1787967579 14.44° C - 1022.6 hPa 0 mm - - -
1787967279 14.44° C - 1022.5 hPa 0 mm - - -
1787966981 14.44° C - 1022.5 hPa 0 mm - - -
1787966681 14.44° C - 1022.6 hPa 0 mm - - -
1787966380 14.44° C - 1022.5 hPa 0 mm - - -
1787966079 14.44° C - 1022.6 hPa 0 mm - - -
1787965779 14.44° C - 1022.9 hPa 0 mm - - -
1787965180 15° C - 1022.9 hPa 0 mm - - -
1787964887 15° C - 1023 hPa 0 mm - - -
1787964579 15° C - 1023 hPa 0 mm - - -
1787964279 15° C - 1023 hPa 0 mm - - -
1787963680 15° C - 1023 hPa 0 mm - - -
1787963079 15.56° C - 1023.2 hPa 0 mm - - -
1787962779 16.11° C - 1022.9 hPa 0 mm - - -
1787962180 16.11° C - 1022.9 hPa 0 mm - - -
1787961579 16.67° C - 1023 hPa 0 mm - - -
1787961279 16.11° C - 1023 hPa 0 mm - - -
1787960980 15.56° C - 1023.3 hPa 0 mm - - -
1787960379 16.11° C - 1023.3 hPa 0 mm - - -
1787960079 16.11° C - 1023.3 hPa 0 mm - - -
1787959180 16.11° C - 1023.1 hPa 0 mm - - -

* Rain latest hour (hover to see other rain measurements)
** Current wind speed in m/s (hover to see current wind gust speed)